Overview Statistics Trail Chart Weather Telemetry Raw packets
 

This is the latest recevied weather packets stored in our database for station/object HA5KNF-10. If no packets are shown the sender has not sent any weather packets the latest 10 day(s).

<< 1 2 3 4 5 >>
Time Temp. Humidity Pressure Rain* Wind** Luminosity Snow
1788561839 20° C 51% 999.9 hPa - - - -
1788558299 20.56° C 48% 1000 hPa - - - -
1788554759 21.11° C 48% 1000.3 hPa - - - -
1788551219 21.67° C 46% 1000.5 hPa - - - -
1788547679 23.33° C 42% 1000.9 hPa - - - -
1788544139 26.11° C 35% 1000.6 hPa - - - -
1788540599 27.78° C 33% 1000.7 hPa - - - -
1788537059 30° C 28% 1001.1 hPa - - - -
1788533518 30° C 31% 1001.6 hPa - - - -
1788529977 29.44° C 31% 1002.5 hPa - - - -
1788522897 28.89° C 32% 1003.8 hPa - - - -
1788519357 28.89° C 31% 1004.4 hPa - - - -
1788515816 27.78° C 33% 1004.9 hPa - - - -
1788512276 25° C 41% 1005.7 hPa - - - -
1788508736 23.33° C 43% 1005.7 hPa - - - -
1788505196 22.22° C 45% 1005.3 hPa - - - -
1788501656 20.56° C 48% 1005.4 hPa - - - -
1788498116 18.89° C 51% 1005.4 hPa - - - -
1788494575 16.67° C 56% 1005.4 hPa - - - -
1788491036 16.11° C 59% 1005.2 hPa - - - -
1788487495 15.56° C 60% 1005.2 hPa - - - -
1788480415 17.22° C 54% 1005.1 hPa - - - -
1788476875 17.78° C 52% 1005 hPa - - - -
1788473335 18.89° C 49% 1004.8 hPa - - - -
1788469794 18.89° C 51% 1004.5 hPa - - - -

* Rain since midnight (hover to see other rain measurements)
** Current wind speed in m/s (hover to see current wind gust speed)